DELTA 1 DEB, 42083

Orbit data source: Space-Track

DELTA 1 DEB, 42083 is space debris in SSO originally from a launch on Sun, 15 Dec 1968 UTC launched from the Air Force Western Test Range (AFWTR). Debris objects in space refer to the collection of defunct objects orbiting the Earth. Examples of debris include non-operational satellites, rocket bodies, and fragments generated from explosions, collisions, or faulty payload assembly.

Loading next visibility...
Identifier
42083, 1968-114K
Orbit
SSO
Last TLE update
1 week ago
Origin
Manufacturer
Aerojet
Mission
Spacecraft
Bus & Motor
Unknown
Mass
Unknown
Launch date (UTC)
1968-12-15 (56 years ago)
Launch vehicle
Unknown
Launch site
Air Force Western Test Range (AFWTR)
Object type
Payload
Rocket body
Debris
Shape & HBR
Unknown
Radar Cross Section
Small (<0.1 m²)

Expand to show TLE details & history

TLE from 1 week ago
0 DELTA 1 DEB
1 42083U 68114K   25122.74564817 -.00000058  00000-0 -89607-5 0  9991
2 42083 101.8832 116.1323 0280491 248.8746 297.0731 13.02065690994825
Epoch: 2025-05-02T17:53Z
Definitive object data (Epoch: 2025-05-02T17:53:44.001Z)
Latitude
-3.10162°
Longitude
166.15113°
Altitude
1,164.511 km
Speed
7.315 km/s
True Right ascension
19h 41m 55s
True Declination
-3° 05' 03"
Sunlit
Object was in daylight at TLE epoch
Visualization TLE readout
Latitude
-15.90066°
Longitude
-2.50744°
Altitude
1,324.308 km
Speed
7.164 km/s
Apparent Right ascension
07h 16m 06s
Apparent Declination
-28° 25' 35"
Sunlit
Object is in daylight
Visualization observer readout
Local Sidereal Time
17:25:57
Azimuth
288.401° WNW
Elevation
-64.628°
Doppler factor
1
Orbital elements
Apogee altitude
1,465.496 km
Perigee altitude
1,037.487 km
Semi-major axis
7,629.628 km
Eccentricity
0.0280491
Inclination
101.8832°
RAAN
116.1323°
Arg. of periapsis
248.8746°
True anomaly
294.16597°
Mean anomaly
297.0731°
Eccentric anomaly
295.62406°
Mean motion
3.25678 °/min
BSTAR
-0.0000089607
Orbital period
110.54 mins
Loading maneuver chart data...
Loading SW <> Apogee altitude chart data...
Loading historical data...
Loading historical data...
Loading historical data...
Loading historical data...
Loading historical data...
Loading historical data...
Loading historical data...

DELTA 1 DEB Visibility forecast

Observer location: undefined°, undefined°

Span
Click to sort rows by Start time (UTC) header in descending order
Start Az.
Max El. time (UTC)
Max El. Az.
Max El.
End time (UTC)
End Az.
13 mins2025-05-09 11:50:38.948Z30.604° NE2025-05-09 11:57:38.948Z102.159° ESE35.16°2025-05-09 12:03:38.948Z169.293° S
11 mins2025-05-09 13:40:38.948Z357.156° N2025-05-09 13:45:38.948Z305.952° NW31.598°2025-05-09 13:51:38.948Z239.146° WSW
13 mins2025-05-09 22:24:38.948Z125.787° SE2025-05-09 22:30:38.948Z63.47° ENE35.695°2025-05-09 22:37:38.948Z356.221° N
14 mins2025-05-10 00:12:38.948Z194.504° SSW2025-05-10 00:19:38.948Z267.902° W34.321°2025-05-10 00:26:38.948Z328.126° NNW
|